Location: Newark
(25.1987°N, 100.3705°W)
Time: 05:12:07
(UTC+00:00)

LightSail 2 - Pass Details

Date: 11 April 2020
Orbit: 695 x 719 km, 24.0° (Epoch: 28 May)

Event Time Altitude Azimuth Distance (km) Brightness Sun altitude
Exits shadow 11:42:49 11° 270° (W) 2,057 6.9 -9.6°
Maximum altitude 11:47:36 71° 187° (S) 731 5.2 -8.5°
Drops below altitude 10° 11:52:38 10° 103° (ESE) 2,139 8.8 -7.4°
Sets 11:55:03 0° 102° (ESE) 3,054 9.8 -6.9°
